Miscellaneous Local Product
Issued by NWS North Platte, NE

Home | Current Version | Previous Version | Text Only | Print | Product List | Glossary On
Versions: 1 2 3 4 5 6 7 8 9 10 11 12 13 14 15 16 17 18 19 20 21 22 23 24 25 26 27 28 29 30 31 32 33 34 35 36 37 38 39 40 41 42 43 44 45 46 47 48 49 50
000
AXUS43 KLBF 290410
MISLBF


WESTERN AND NORTH CENTRAL NEBRASKA HOURLY WEATHER ROUNDUP
NATIONAL WEATHER SERVICE NORTH PLATTE NE
1100 PM CDT SAT MAY 28 2016

NOTE: "FAIR" INDICATES FEW OR NO CLOUDS BELOW 12,000 FEET WITH NO
SIGNIFICANT WEATHER AND/OR OBSTRUCTIONS TO VISIBILITY.

NOTE: STATIONS NOT REPORTING VARIABLES SUCH AS SKY/WEATHER OR
PRESSURE ARE PROVIDED BY RAWS AND APRS NETWORKS AND ARE NOT UNDER
NATIONAL WEATHER SERVICE QUALITY CONTROL.

...OBSERVATIONS IN AND NEAR THE EASTERN PANHANDLE OF NEBRASKA...

CITY           SKY/WX    TMP DP  RH WIND       PRES   REMARKS
PINE RIDGE     CLOUDY    50  47  89 W5        30.04R
CHADRON        CLEAR     45  43  93 SW8       30.05R
ALLIANCE       CLEAR     51  47  86 N6        30.07
SIDNEY         CLOUDY    50  46  86 CALM      30.10R
BIG SPRINGS      N/A     62  51  68 E6          N/A
$$

...OBSERVATIONS IN NORTHERN NEBRASKA AND FAR SOUTHERN SOUTH DAKOTA...

CITY           SKY/WX    TMP DP  RH WIND       PRES   REMARKS
WINNER         MOCLDY    61  56  83 S6        29.98R
VALENTINE      LGT RAIN  59  51  75 NW14      30.01F
THEDFORD       CLOUDY    62  52  68 N5        30.03S
AINSWORTH      LGT RAIN  61  55  79 W13G24    30.04R
O`NEILL        CLEAR     58  57  94 CALM      30.00R
ORD            CLEAR     58  55  90 CALM      29.99R
BROKEN BOW     CLOUDY    62  55  77 E7        30.01R
BUTTE            N/A     59  56  88 S3          N/A
CHAMBERS         N/A     56  54  92 CALM        N/A
EWING            N/A     56  55  95 CALM        N/A
$$

...OBSERVATIONS IN SOUTHWEST NEBRASKA AND FAR NORTHEAST COLORADO...

CITY           SKY/WX    TMP DP  RH WIND       PRES   REMARKS
WRAY           FAIR      63  52  67 SW14G20   30.07R
HOLYOKE        TSTM      64  50  59 SW9G21    30.10R
IMPERIAL       CLOUDY    64  55  72 E8        30.05R
OGALLALA       CLOUDY    54  50  84 CALM      30.05R
NORTH PLATTE   TSTM      56  52  86 NW16G31   30.09R FOG
MCCOOK         CLEAR     61  51  70 CALM      30.02R
LEXINGTON      PTCLDY    63  51  65 N17G24    30.04R
PAXTON           N/A     61  51  69 NW10        N/A
STAPLETON        N/A     58  51  79 CALM        N/A
GOTHENBURG       N/A     63  46  54 N12         N/A
CALLAWAY         N/A     58  52  81 E6          N/A
$$

...OBSERVATIONS IN CENTRAL LINCOLN COUNTY AREA...

CITY           SKY/WX    TMP DP  RH WIND       PRES   REMARKS
N.P. AIRPORT   TSTM      56  52  86 NW16G31   30.09R FOG
N.P. DOWNTOWN    N/A     55  53  94 N5G12       N/A
N.P. SOUTHEAST   N/A     56  53  91 N7G16       N/A
N.P. HILLCREST   N/A     57  51  82 NW16        N/A
$$

...SOME OBSERVATIONS FROM AROUND THE REGION...

CITY           SKY/WX    TMP DP  RH WIND       PRES   REMARKS
DENVER         CLOUDY    55  46  71 S12       30.13R
LARAMIE        CLOUDY    46  31  55 W5        30.19R
CHEYENNE       CLOUDY    55  39  54 SW10      30.14R
SCOTTSBLUFF    CLEAR     57  47  69 E7        30.07R
RAPID CITY     CLOUDY    54  48  80 NW8       30.02R
BISMARCK       CLEAR     57  56  96 W5        29.94R
PIERRE         PTCLDY    59  54  83 CALM      29.94R
SIOUX FALLS    CLOUDY    60  57  89 W7        29.93R
OMAHA          CLEAR     65  56  72 W8        29.96R
GRAND ISLAND   CLEAR     62  56  80 CALM      30.01R
KANSAS CITY    CLEAR     65  59  81 SW6       30.00R
WICHITA        CLEAR     67  58  72 CALM      30.02R
OKLAHOMA CITY  CLEAR     70  65  84 SE7       30.03R
DALLAS         CLOUDY    80  72  76 SE9       29.99R
AMARILLO       CLEAR     62  49  62 SE12      30.07R
DODGE CITY     CLEAR     61  54  77 E6        30.05R
HAYS           CLEAR     63  52  67 S7        30.03R
GOODLAND       CLEAR     64  46  52 S7        30.08R
$$




USA.gov is the U.S. government's official web portal to all federal, state and local government web resources and services.